Location: Coll
(42.4728°N, 0.7714°E)
Time: 20:22:11
(UTC+00:00)

Daily predictions for brighter satellites

Satellite Brightness Start Highest point End
(mag) Time Altitude Azimuth Time Altitude Azimuth Time Altitude Azimuth
Cosmos 2333 Rocket 2.8 16:47:29 10° S 16:52:44 39° ESE 16:58:03 10° NE
Cosmos 2228 Rocket 3.8 16:48:48 10° SSW 16:53:17 60° W 16:57:51 10° N
PSLV R/B 4.0 16:50:52 10° NNE 16:55:01 62° ESE 16:59:05 10° S
Okean-O 3.7 16:51:45 10° ESE 16:55:19 24° ENE 16:58:53 10° NNE
Meteor 1-14 Rocket 4.3 16:49:25 10° N 16:55:24 75° E 17:01:12 10° SSE
ATLAS 2AS CENTAUR R/B 3.3 16:48:05 10° SW 16:56:02 80° NW 17:04:07 10° NE
BREEZE-M R/B 3.9 16:50:49 10° W 16:57:58 52° NNW 17:01:34 10° NE
Feng Yun 1-1 Rocket 4.3 16:53:09 10° SE 16:58:22 52° ENE 17:03:35 10° N
Cosmos 1302 Rocket 4.5 16:54:10 10° N 16:59:07 39° ENE 17:04:00 10° SE
Radarsat Rocket 4.4 16:57:14 10° SSE 17:03:42 75° WSW 17:09:38 10° NNW
Cosmos 2279 Rocket 4.1 16:58:16 10° N 17:04:27 58° E 17:10:36 10° SSE
Cosmos 44 Rocket 3.1 17:01:17 10° NNW 17:06:01 80° NE 17:10:43 10° SE
Cosmos 1634 Rocket 4.1 17:00:27 10° N 17:06:38 84° W 17:12:49 10° S
Cosmos 2237 Rocket 3.6 17:04:00 10° SE 17:07:52 19° E 17:11:43 10° ENE
CZ-4 R/B 3.0 17:06:43 10° E 17:08:49 14° ENE 17:10:55 10° NNE
Exosat Rocket 4.4 17:04:37 10° SSE 17:09:38 32° ESE 17:14:05 10° NE
Cosmos 1812 3.8 17:08:27 10° SE 17:11:36 24° E 17:14:45 10° NE
Cosmos 2322 Rocket 3.9 17:07:24 10° WSW 17:12:11 28° NW 17:17:00 10° N
SL-8 R/B 3.7 17:07:56 10° WNW 17:12:46 72° NNE 17:17:36 10° ESE
Cosmos 1536 4.3 17:11:27 10° NNE 17:14:09 17° ENE 17:16:49 10° ESE
Cosmos 1844 3.7 17:10:57 10° NNW 17:16:41 85° ENE 17:22:18 10° SSE
SL-16 R/B 4.2 17:12:25 10° WSW 17:16:53 23° NW 17:21:21 10° N
Cosmos 1707 Rocket 3.5 17:15:15 10° S 17:19:41 78° E 17:24:10 10° N
TIMED 4.5 17:16:14 10° SSW 17:20:35 84° ESE 17:24:58 10° NNE
Nadezhda 4 Rocket 4.4 17:17:44 10° SSE 17:23:36 42° E 17:29:30 10° NNE
Cosmos 2219 Rocket 2.1 17:22:12 10° SSW 17:27:46 74° ESE 17:33:23 10° NNE
Envisat 3.2 17:23:15 10° SE 17:28:06 48° ENE 17:32:59 10° N
Lacrosse 5 rocket 2.1 17:25:25 10° SSW 17:29:24 36° SE 17:31:54 19° ENE
SMAP 3.1 17:25:10 10° SSE 17:29:49 84° WSW 17:34:30 10° NNW
STARLINK-67 3.9 17:28:12 10° W 17:30:45 32° NNW 17:32:26 17° NNE
USA 215 4.3 17:26:00 10° NE 17:31:44 34° NNW 17:37:27 10° W
CORIOLIS 4.2 17:29:33 10° SSE 17:35:00 88° ENE 17:40:30 10° NNW
ERBS 2.4 17:33:15 10° NW 17:36:32 52° NE 17:38:53 17° ESE
Cosmos 1980 4.3 17:32:17 10° S 17:37:21 36° ESE 17:41:05 17° NE
Cosmos 1844 Rocket 3.6 17:32:13 10° NNW 17:37:38 52° WSW 17:43:01 10° S
CENTAUR R/B 3.6 17:30:16 10° NW 17:38:24 70° WSW 17:47:02 10° SSE
COSMO-SKYMED 1 3.0 17:35:37 10° NNE 17:39:38 39° E 17:43:43 10° SSE
H-2A R/B 3.1 17:36:07 10° S 17:39:49 66° W 17:43:30 10° NNW
SL-4 R/B 1.9 17:36:43 10° WSW 17:40:25 74° NNW 17:42:51 22° NE
Cosmos 1500 3.2 17:38:49 10° N 17:42:32 53° E 17:46:12 10° SSE
STARLINK-46 2.5 17:41:26 10° SW 17:44:10 68° SE 17:44:58 39° ENE
Shenzhou-11 Module 1.8 17:42:09 10° WSW 17:44:51 63° SSE 17:45:40 38° E
COSMOS 2428 2.8 17:39:22 10° SSW 17:45:02 83° WNW 17:50:46 10° NNE
NOAA 12 4.0 17:40:08 10° SSE 17:45:26 83° ENE 17:50:46 10° NNW
Cosmos 304 Rocket 3.8 17:40:38 10° NNW 17:45:28 88° WSW 17:50:17 10° SSE
Cosmos 1992 Rocket 4.4 17:42:33 10° N 17:47:27 39° ENE 17:52:19 10° SE
Cosmos 1340 4.4 17:44:25 10° NNW 17:47:52 34° W 17:51:18 10° SSW
YAOGAN 1 3.2 17:45:09 10° SE 17:48:58 32° ENE 17:52:50 10° N
Meteor 1-5 Rocket 4.1 17:43:43 10° N 17:49:21 85° E 17:54:45 10° S
Cosmos 1315 Rocket 4.5 17:46:26 10° SW 17:50:02 33° WNW 17:53:43 10° N
FengYun 1-2 T 4.2 17:48:03 10° SSE 17:53:25 61° ENE 17:58:51 10° N
CSL-04 Rocket 3.9 17:50:03 10° SE 17:54:56 41° ENE 17:59:51 10° N
SKYMED 3 4.4 18:00:04 14° NNE 18:03:52 74° ESE 18:08:11 10° S
CSL-04 Debris 4.3 17:59:13 10° SE 18:04:29 51° ENE 18:09:45 10° N
Cosmos 1733 Rocket 3.5 18:04:14 10° NNW 18:08:33 63° W 18:12:53 10° S
YAOGAN 6 2.4 18:06:27 10° SSE 18:09:57 88° ENE 18:13:31 10° N
BREEZE-M DEB (TANK) 2.4 18:11:25 10° WNW 18:15:36 48° N 18:15:45 47° N
Okean 1-7 4.0 18:11:45 10° SSE 18:14:17 29° SE 18:14:17 29° SE
ATLAS 3B R/B 3.7 18:09:39 10° NW 18:16:04 48° WSW 18:22:38 10° S
RESURS DK-1 3.2 18:13:15 10° SW 18:17:14 48° WNW 18:19:33 23° N
ISS -2.3 18:14:21 10° NW 18:16:28 27° NNW 18:16:28 27° NNW
BREEZE-M DEB (TANK) 2.9 18:15:45 10° WNW 18:17:43 40° SW 18:17:43 40° SW
Atlas Centaur 2 4.3 18:11:29 10° WSW 18:18:30 33° S 18:25:05 13° SE
NOAA 11 4.2 18:16:29 10° SSE 18:21:44 53° ENE 18:27:04 10° N
Cosmos 2195 Rocket 4.4 18:16:26 10° S 18:22:31 64° E 18:28:43 10° NNE
Cosmos 1092 Rocket 3.9 18:19:34 10° S 18:25:53 82° E 18:32:13 10° N
Meteor 1-11 Rocket 4.4 18:20:06 10° NNW 18:25:58 59° W 18:31:46 10° S
Cosmos 2278 Rocket 2.1 18:20:19 10° NNW 18:26:01 90° WSW 18:31:40 10° SSE
SKYMED 2 4.0 18:24:20 15° N 18:27:51 60° WNW 18:32:06 10° SSW
Cosmos 2242 Rocket 3.8 18:23:46 10° SSW 18:28:17 72° W 18:31:38 18° N
Okean-O 4.4 18:27:38 10° SSW 18:31:37 33° W 18:35:39 10° NNW
Meteor 1-27 Rocket 4.4 18:26:30 10° SSW 18:32:03 56° WNW 18:37:47 10° N
Cosmos 2333 Rocket 3.7 18:31:55 10° WSW 18:37:04 33° NW 18:41:54 12° N
SL-16 R/B 3.1 18:31:57 10° S 18:35:32 32° SE 18:35:32 32° SE
Cosmos 2251 Rocket 4.2 18:33:10 10° SW 18:38:22 54° WNW 18:41:51 21° N
Cosmos 1703 Rocket 3.5 18:38:42 10° S 18:43:03 84° SW 18:43:03 84° SW
CZ-4 R/B 2.3 18:39:40 10° S 18:43:29 46° W 18:47:16 10° NNW
NOSS 0 Rocket 4.4 18:38:50 10° SW 18:44:57 60° WNW 18:48:39 25° NNE
Cosmos 1536 4.4 18:47:00 10° NNW 18:50:42 35° W 18:54:21 10° SSW
Cosmos 2237 Rocket 2.5 18:45:43 10° SW 18:51:21 63° WNW 18:53:36 36° N
SeaSat 1 4.3 18:57:00 20° N 18:57:00 20° N 18:58:34 10° NNW
Lacrosse 5 rocket 3.1 19:04:42 10° W 19:07:34 30° WNW 19:07:34 30° WNW
Cosmos 2219 Rocket 4.4 19:08:23 10° W 19:12:20 19° NW 19:15:50 12° N
